Location: Kempten
(47.7167°N, 10.3167°E)
Time: 00:41:15
(UTC+02:00)

X-37B - Visible Passes

Search period start: 21 June 2021 00:00
Search period end: 01 July 2021 00:00
Orbit: 386 x 389 km, 45.0° (Epoch: 10 June)

Date Brightness Start Highest point End Pass type
(mag) Time Alt. Az. Time Alt. Az. Time Alt. Az.
21 Jun 0.8 03:05:32 33° WSW 03:06:28 44° S 03:09:31 10° ESE visible
22 Jun 2.9 02:10:40 14° ESE 02:10:40 14° ESE 02:11:16 10° ESE visible
22 Jun 1.6 03:43:04 18° WSW 03:44:29 25° SSW 03:47:11 10° SE visible
22 Jun 2.8 23:30:44 10° SW 23:31:22 14° SW 23:31:22 14° SW visible
23 Jun 2.6 04:22:08 11° SW 04:22:18 11° SSW 04:23:21 10° SSW visible
23 Jun 1.9 22:32:53 10° SSW 22:35:20 20° SSE 22:37:47 10° ESE visible
24 Jun 2.0 00:08:30 10° WSW 00:10:09 26° SW 00:10:09 26° SW visible
24 Jun 1.0 23:10:19 10° WSW 23:13:18 38° SSE 23:15:11 19° ESE visible
25 Jun 2.7 00:46:36 10° W 00:47:29 17° WSW 00:47:29 17° WSW visible
25 Jun 1.5 22:12:15 10° SW 22:15:04 29° SSE 22:17:53 10° E visible
25 Jun 0.7 23:48:18 10° WSW 23:51:24 52° S 23:51:53 46° SE visible
26 Jun 0.8 22:50:02 10° WSW 22:53:07 47° S 22:56:01 11° E visible
27 Jun 1.9 00:26:29 10° W 00:28:17 28° WSW 00:28:17 28° WSW visible
27 Jun 0.7 23:28:08 10° W 23:31:14 50° S 23:32:17 33° SE visible
28 Jun 0.8 22:29:50 10° WSW 22:32:57 52° S 22:36:02 10° ESE visible
29 Jun 1.8 00:06:23 10° W 00:08:29 29° SW 00:08:29 29° SW visible
29 Jun 1.0 23:08:00 10° W 23:11:04 43° S 23:12:24 26° SE visible
30 Jun 0.9 22:09:40 10° W 22:12:46 50° S 22:15:52 10° ESE visible
30 Jun 2.0 23:46:23 10° W 23:48:33 24° SW 23:48:33 24° SW visible
